GW3796 Weather Reports


time (UTC)temp
C
wind
direction
speed
KPH
gust
KPH
rain 1hr
cm
rain 24hr
cm
rain mn
cm
humidity
%
barometer
mb
20260906230632 37 64 4.8 6.4 0.00 0.00 0.00 37 1011.8
20260906225629 37 49 8.0 12.9 0.00 0.00 0.00 37 1011.8
20260906224627 38 42 8.0 11.3 0.00 0.00 0.00 37 1011.9
20260906223625 38 32 4.8 6.4 0.00 0.00 0.00 37 1012.0
20260906222622 38 58 8.0 12.9 0.00 0.00 0.00 36 1012.0
20260906221621 38 86 6.4 9.7 0.00 0.00 0.00 37 1012.0
20260906220619 38 48 6.4 8.0 0.00 0.00 0.00 39 1012.1
20260906215628 37 14 4.8 11.3 0.00 0.00 0.00 39 1012.1
20260906214626 38 41 8.0 12.9 0.00 0.00 0.00 37 1012.3
20260906213624 38 28 8.0 12.9 0.00 0.00 0.00 36 1012.4
20260906212642 39 49 3.2 6.4 0.00 0.00 0.00 35 1012.6
20260906211720 38 42 4.8 8.0 0.00 0.00 0.00 37 1012.7
20260906210630 38 66 6.4 9.7 0.00 0.00 0.00 38 1012.8
20260906205707 37 108 4.8 6.4 0.00 0.00 0.00 38 1012.9
20260906204624 37 48 11.3 14.5 0.00 0.00 0.00 37 1013.1
20260906203642 37 47 8.0 12.9 0.00 0.00 0.00 40 1013.1
20260906202620 37 54 6.4 12.9 0.00 0.00 0.00 39 1013.2
20260906201631 37 51 9.7 16.1 0.00 0.00 0.00 40 1013.2
20260906200628 38 65 4.8 6.4 0.00 0.00 0.00 39 1013.4
20260906195626 38 100 8.0 11.3 0.00 0.00 0.00 39 1013.5
20260906194623 37 56 6.4 11.3 0.00 0.00 0.00 39 1013.6
20260906193641 37 71 4.8 8.0 0.00 0.00 0.00 40 1013.7
20260906192619 37 70 4.8 9.7 0.00 0.00 0.00 41 1013.8
20260906191650 37 43 11.3 14.5 0.00 0.00 0.00 41 1014.0
20260906190627 37 52 9.7 14.5 0.00 0.00 0.00 40 1014.0
20260906185624 37 117 6.4 11.3 0.00 0.00 0.00 40 1014.0
20260906184621 37 41 6.4 11.3 0.00 0.00 0.00 41 1014.1
20260906183619 37 95 8.0 12.9 0.00 0.00 0.00 40 1014.2
20260906182629 37 74 8.0 12.9 0.00 0.00 0.00 40 1014.4
20260906181626 36 53 6.4 9.7 0.00 0.00 0.00 44 1014.5
20260906180627 36 35 6.4 11.3 0.00 0.00 0.00 44 1014.6
20260906175624 36 80 8.0 11.3 0.00 0.00 0.00 44 1014.9
20260906174620 36 38 9.7 12.9 0.00 0.00 0.00 44 1015.1
20260906173618 36 65 8.0 14.5 0.00 0.00 0.00 45 1015.2
20260906172627 36 44 6.4 16.1 0.00 0.00 0.00 45 1015.3
20260906171628 36 77 8.0 12.9 0.00 0.00 0.00 44 1015.4
20260906170625 36 53 3.2 4.8 0.00 0.00 0.00 46 1015.4
20260906165622 35 60 4.8 8.0 0.00 0.00 0.00 46 1015.5
20260906164619 36 135 4.8 6.4 0.00 0.00 0.00 46 1015.7
20260906163648 35 95 3.2 6.4 0.00 0.00 0.00 47 1015.8
20260906162626 36 79 6.4 9.7 0.00 0.00 0.00 46 1015.7
20260906161624 35 28 6.4 11.3 0.00 0.00 0.00 48 1015.7
20260906160624 35 61 3.2 6.4 0.00 0.00 0.00 50 1015.8
20260906155621 35 59 3.2 8.0 0.00 0.00 0.00 50 1015.8
20260906154629 35 67 3.2 4.8 0.00 0.00 0.00 52 1015.8
20260906153626 35 102 4.8 8.0 0.00 0.00 0.00 53 1015.6
20260906152645 34 64 4.8 8.0 0.00 0.00 0.00 53 1015.4
20260906151623 33 58 3.2 6.4 0.00 0.00 0.00 55 1015.1
20260906150623 33 47 1.6 4.8 0.00 0.00 0.00 57 1014.9
20260906145640 33 18 4.8 11.3 0.00 0.00 0.00 57 1015.2
20260906144628 32 105 1.6 4.8 0.00 0.00 0.00 59 1015.1
20260906143646 32 62 6.4 8.0 0.00 0.00 0.00 60 1015.1
20260906142643 32 50 4.8 6.4 0.00 0.00 0.00 61 1015.1
20260906141622 31 123 0.0 3.2 0.00 0.00 0.00 63 1015.2
20260906140622 31 20 1.6 6.4 0.00 0.00 0.00 65 1015.1
20260906135639 30 40 0.0 1.6 0.00 0.00 0.00 66 1015.1
20260906134626 30 68 1.6 4.8 0.00 0.00 0.00 69 1015.0
20260906133645 29 36 6.4 8.0 0.00 0.00 0.00 69 1015.0
20260906132622 28 52 4.8 6.4 0.00 0.00 0.00 71 1014.8
20260906131620 28 94 4.8 6.4 0.00 0.00 0.00 72 1014.9
20260906130621 27 31 4.8 6.4 0.00 0.00 0.00 74 1015.1
20260906125627 27 47 1.6 3.2 0.00 0.00 0.00 77 1015.0
20260906124625 26 33 3.2 4.8 0.00 0.00 0.00 80 1014.9
20260906123703 25 39 1.6 4.8 0.00 0.00 0.00 81 1014.6
20260906122621 25 102 0.0 4.8 0.00 0.00 0.00 82 1014.7
20260906121639 25 0.0 0.0 0.00 0.00 0.00 81 1014.5
20260906120620 25 0.0 0.0 0.00 0.00 0.00 81 1014.4
20260906115626 25 0.0 1.6 0.00 0.00 0.00 83 1014.2
20260906114724 25 59 0.0 1.6 0.00 0.00 0.00 82 1014.2
20260906113622 26 0.0 0.0 0.00 0.00 0.00 80 1014.3
20260906112620 26 48 0.0 1.6 0.00 0.00 0.00 79 1014.2
20260906111621 26 0.0 0.0 0.00 0.00 0.00 79 1014.1
20260906110619 26 0.0 0.0 0.00 0.00 0.00 79 1013.9
20260906105625 25 0.0 0.0 0.00 0.00 0.00 79 1014.0
20260906104623 25 0.0 0.0 0.00 0.00 0.00 80 1014.0
20260906103621 25 0.0 0.0 0.00 0.00 0.00 80 1013.9
20260906102618 26 0.0 0.0 0.00 0.00 0.00 81 1014.0
20260906101620 26 28 0.0 1.6 0.00 0.00 0.00 81 1013.8
20260906100625 26 0.0 0.0 0.00 0.00 0.00 80 1013.6
20260906095623 26 0.0 0.0 0.00 0.00 0.00 78 1013.7
20260906094622 26 0.0 0.0 0.00 0.00 0.00 77 1013.7
20260906093619 26 0.0 0.0 0.00 0.00 0.00 76 1013.6
20260906092623 26 0.0 0.0 0.00 0.00 0.00 75 1013.3
20260906091639 26 74 0.0 1.6 0.00 0.00 0.00 75 1013.4
20260906090624 27 61 0.0 1.6 0.00 0.00 0.00 75 1013.4
20260906085623 27 0.0 0.0 0.00 0.00 0.00 75 1013.1
20260906084640 27 58 1.6 1.6 0.00 0.00 0.00 76 1013.3
20260906083638 27 92 1.6 1.6 0.00 0.00 0.00 74 1013.2
20260906082621 27 138 0.0 3.2 0.00 0.00 0.00 73 1013.1
20260906081618 27 105 1.6 4.8 0.00 0.00 0.00 72 1013.2
20260906080643 27 0.0 0.0 0.00 0.00 0.00 72 1013.3
20260906075621 28 106 0.0 1.6 0.00 0.00 0.00 71 1013.5
20260906074619 28 109 3.2 4.8 0.00 0.00 0.00 71 1013.4
20260906073623 28 0.0 1.6 0.00 0.00 0.00 70 1013.5
20260906072620 28 42 1.6 4.8 0.00 0.00 0.00 69 1013.6
20260906071626 28 82 3.2 4.8 0.00 0.00 0.00 69 1013.6
20260906070622 28 78 1.6 4.8 0.00 0.00 0.00 69 1013.4
20260906065620 28 61 1.6 3.2 0.00 0.00 0.00 70 1013.4
20260906064645 28 0.0 1.6 0.00 0.00 0.00 70 1013.6
20260906063622 28 114 0.0 1.6 0.00 0.00 0.00 69 1013.9
20260906062639 28 0.0 1.6 0.00 0.00 0.00 69 1013.6
20260906061643 28 9 0.0 3.2 0.00 0.00 0.00 69 1013.5
20260906060641 28 192 1.6 3.2 0.00 0.00 0.00 68 1013.8
20260906055619 29 34 0.0 3.2 0.00 0.00 0.00 68 1014.0
20260906054624 29 265 0.0 3.2 0.00 0.00 0.00 67 1013.6
20260906053701 29 120 1.6 3.2 0.00 0.00 0.00 67 1013.6
20260906052623 29 78 3.2 4.8 0.00 0.00 0.00 66 1013.9
20260906051622 30 79 4.8 9.7 0.00 0.00 0.00 66 1013.9
20260906050620 30 89 3.2 4.8 0.00 0.00 0.00 66 1013.9
20260906045628 30 33 4.8 9.7 0.00 0.00 0.00 65 1014.0
20260906044623 30 103 1.6 4.8 0.00 0.00 0.00 65 1013.8
20260906043700 30 69 0.0 1.6 0.00 0.00 0.00 64 1013.7
20260906042622 30 100 1.6 4.8 0.00 0.00 0.00 63 1013.6
20260906041620 30 41 3.2 9.7 0.00 0.00 0.00 63 1013.5
20260906040629 30 92 4.8 6.4 0.00 0.00 0.00 62 1013.7
20260906035627 30 12 4.8 11.3 0.00 0.00 0.00 62 1013.5
20260906034622 30 47 6.4 9.7 0.00 0.00 0.00 61 1013.7
20260906033659 31 92 4.8 8.0 0.00 0.00 0.00 60 1013.6
20260906032621 31 108 4.8 9.7 0.00 0.00 0.00 60 1013.7
20260906031639 31 40 6.4 9.7 0.00 0.00 0.00 59 1013.5
20260906030628 31 57 6.4 9.7 0.00 0.00 0.00 59 1013.5
20260906025646 31 22 6.4 11.3 0.00 0.00 0.00 58 1013.6
20260906024621 31 100 6.4 8.0 0.00 0.00 0.00 57 1013.2
20260906023622 31 58 8.0 9.7 0.00 0.00 0.00 57 1013.1
20260906022631 32 55 8.0 16.1 0.00 0.00 0.00 56 1012.9
20260906021629 32 57 4.8 8.0 0.00 0.00 0.00 55 1012.8
20260906020626 32 38 9.7 12.9 0.00 0.00 0.00 53 1012.8
20260906015625 32 49 8.0 11.3 0.00 0.00 0.00 52 1012.5
20260906014619 33 33 9.7 14.5 0.00 0.00 0.00 51 1012.3
20260906013620 34 60 11.3 19.3 0.00 0.00 0.00 47 1012.1
20260906012619 34 47 4.8 8.0 0.00 0.00 0.00 43 1011.8
20260906011627 35 33 6.4 9.7 0.00 0.00 0.00 42 1011.6
20260906010625 35 64 4.8 9.7 0.00 0.00 0.00 41 1011.7
20260906005624 35 44 4.8 9.7 0.00 0.00 0.00 41 1011.6
20260906004619 35 51 1.6 8.0 0.00 0.00 0.00 40 1011.5
20260906003619 35 38 6.4 6.4 0.00 0.00 0.00 39 1011.6
20260906002649 36 21 3.2 8.0 0.00 0.00 0.00 39 1011.7
20260906001646 36 46 4.8 9.7 0.00 0.00 0.00 38 1011.7
20260906000624 36 71 4.8 6.4 0.00 0.00 0.00 38 1011.6
20260905235622 37 46 4.8 8.0 0.00 0.00 0.00 37 1011.5
20260905234620 37 29 4.8 6.4 0.00 0.00 0.00 37 1011.5
20260905233631 37 56 9.7 14.5 0.00 0.00 0.00 37 1011.6
20260905232628 37 40 4.8 8.0 0.00 0.00 0.00 36 1011.6
20260905231625 38 39 3.2 4.8 0.00 0.00 0.00 36 1011.6